GW3806 Weather Reports


Display with metric or nautical units.
time (UTC)temp
F
wind
direction
speed
MPH
gust
MPH
rain 1hr
in
rain 24hr
in
rain mn
in
humidity
%
barometer
mb
20260504130400 43 127 0.0 4.0 0.00 0.00 0.00 60 1008.8
20260504110248 44 79 7.0 8.0 0.00 0.00 0.00 61 1009.2
20260504100205 45 66 0.0 7.0 0.00 0.00 0.00 60 1009.2
20260504090122 47 86 8.0 11.0 0.00 0.00 0.00 57 1009.3
20260504081552 46 95 4.0 6.0 0.00 0.00 0.00 56 1009.8
20260504081048 47 135 4.0 7.0 0.00 0.00 0.00 54 1009.9
20260504080545 48 107 3.0 9.0 0.00 0.00 0.00 51 1010.0
20260504050357 48 88 5.0 9.0 0.00 0.00 0.00 51 1011.1
20260504045855 48 99 3.0 7.0 0.00 0.00 0.00 52 1011.0
20260504045349 48 84 6.0 9.0 0.00 0.00 0.00 53 1010.9
20260504044847 47 82 4.0 11.0 0.00 0.00 0.00 53 1011.1
20260504044344 48 50 5.0 11.0 0.00 0.00 0.00 52 1011.0
20260504043841 47 96 8.0 11.0 0.00 0.00 0.00 52 1011.1
20260504043338 48 63 2.0 9.0 0.00 0.00 0.00 51 1011.1
20260504042835 48 254 2.0 6.0 0.00 0.00 0.00 51 1011.4
20260504042332 48 25 3.0 10.0 0.00 0.00 0.00 52 1011.3
20260504041828 48 90 3.0 7.0 0.00 0.00 0.00 52 1011.3
20260504041324 48 81 4.0 10.0 0.00 0.00 0.00 50 1011.3
20260504040820 48 86 3.0 8.0 0.00 0.00 0.00 51 1011.3
20260504040318 48 15 3.0 9.0 0.00 0.00 0.00 51 1011.3
20260504035814 49 0 4.0 13.0 0.00 0.00 0.00 50 1011.1
20260504035312 49 277 1.0 7.0 0.00 0.00 0.00 51 1011.3
20260504034809 49 116 5.0 8.0 0.00 0.00 0.00 51 1011.3
20260504034306 48 84 5.0 9.0 0.00 0.00 0.00 51 1011.3
20260504033803 49 87 9.0 9.0 0.00 0.00 0.00 51 1011.3
20260504033301 49 66 6.0 11.0 0.00 0.00 0.00 50 1011.3
20260504032757 50 95 10.0 10.0 0.00 0.00 0.00 49 1011.1
20260504032255 50 99 5.0 12.0 0.00 0.00 0.00 49 1011.1
20260504031751 50 69 3.0 9.0 0.00 0.00 0.00 50 1011.1
20260504031249 50 97 4.0 9.0 0.00 0.00 0.00 49 1011.1
20260504030745 50 81 5.0 9.0 0.00 0.00 0.00 50 1011.3
20260504030242 50 49 3.0 11.0 0.00 0.00 0.00 49 1011.1
20260504025738 51 97 5.0 9.0 0.00 0.00 0.00 48 1011.3
20260504025236 50 260 0.0 6.0 0.00 0.00 0.00 48 1011.1
20260504024732 50 81 0.0 7.0 0.00 0.00 0.00 50 1011.0
20260504024228 50 221 1.0 4.0 0.00 0.00 0.00 51 1011.0
20260504023726 50 77 0.0 5.0 0.00 0.00 0.00 53 1011.1
20260504023221 53 81 0.0 5.0 0.00 0.00 0.00 47 1011.3
20260504022717 54 98 3.0 4.0 0.00 0.00 0.00 44 1011.0
20260504022214 56 90 2.0 3.0 0.00 0.00 0.00 41 1011.1
20260504021712 56 90 1.0 2.0 0.00 0.00 0.00 39 1011.1
20260504021208 56 90 0.0 1.0 0.00 0.00 0.00 39 1011.1
20260504020705 56 99 0.0 0.0 0.00 0.00 0.00 40 1011.0
20260504020201 57 270 0.0 0.0 0.00 0.00 0.00 39 1011.1
20260504015658 59 270 0.0 0.0 0.00 0.00 0.00 38 1011.3
20260504015154 60 270 0.0 0.0 0.00 0.00 0.00 38 1011.1
20260504014650 61 270 0.0 0.0 0.00 0.00 0.00 36 1011.3
20260504014147 61 270 0.0 2.0 0.00 0.00 0.00 37 1011.3
20260504013645 62 246 0.0 2.0 0.00 0.00 0.00 34 1011.3
20260504013142 62 286 2.0 4.0 0.00 0.00 0.00 35 1011.3
20260504012639 64 253 3.0 5.0 0.00 0.00 0.00 30 1011.4
20260504012137 64 278 3.0 5.0 0.00 0.00 0.00 30 1011.4
20260504011633 64 292 4.0 6.0 0.00 0.00 0.00 27 1011.5
20260504011130 64 286 4.0 8.0 0.00 0.00 0.00 28 1011.5
20260504010625 65 250 5.0 5.0 0.00 0.00 0.00 29 1011.4
20260504010116 65 220 5.0 5.0 0.00 0.00 0.00 30 1011.6
20260504005614 65 279 0.0 10.0 0.00 0.00 0.00 32 1011.6
20260504005110 66 275 4.0 11.0 0.00 0.00 0.00 29 1011.4
20260504004609 66 277 4.0 8.0 0.00 0.00 0.00 27 1011.6
20260504004105 65 290 4.0 9.0 0.00 0.00 0.00 29 1011.5
20260504003601 65 278 5.0 10.0 0.00 0.00 0.00 26 1011.6
20260504003058 66 304 4.0 7.0 0.00 0.00 0.00 28 1011.6
20260504002555 65 287 6.0 14.0 0.00 0.00 0.00 28 1011.7
20260504002053 66 300 3.0 7.0 0.00 0.00 0.00 29 1011.7
20260504001550 66 345 4.0 7.0 0.00 0.00 0.00 30 1011.7
20260504001046 66 266 8.0 11.0 0.00 0.00 0.00 29 1011.6
20260504000543 66 267 6.0 7.0 0.00 0.00 0.00 29 1011.9
20260504000041 66 281 5.0 11.0 0.00 0.00 0.00 27 1011.6
20260503235539 67 267 6.0 8.0 0.00 0.00 0.00 30 1011.9
20260503235035 66 290 6.0 11.0 0.00 0.00 0.00 29 1011.9
20260503234533 67 295 10.0 10.0 0.00 0.00 0.00 28 1011.9
20260503234031 67 180 2.0 7.0 0.00 0.00 0.00 30 1011.9
20260503233527 67 292 4.0 9.0 0.00 0.00 0.00 30 1012.0
20260503233023 67 254 5.0 8.0 0.00 0.00 0.00 30 1011.7
20260503232520 67 270 6.0 7.0 0.00 0.00 0.00 31 1012.0
20260503232018 66 228 4.0 11.0 0.00 0.00 0.00 29 1012.1
20260503231515 67 283 4.0 13.0 0.00 0.00 0.00 31 1012.0
20260503231012 66 272 7.0 10.0 0.00 0.00 0.00 30 1012.0
20260503230509 66 260 4.0 5.0 0.00 0.00 0.00 30 1012.4
20260503230006 66 68 0.0 6.0 0.00 0.00 0.00 30 1012.0
20260503225503 67 326 2.0 8.0 0.00 0.00 0.00 32 1012.1
20260503224957 67 270 4.0 9.0 0.00 0.00 0.00 32 1012.2
20260503224455 66 251 3.0 5.0 0.00 0.00 0.00 30 1012.4
20260503223953 65 304 2.0 5.0 0.00 0.00 0.00 34 1012.4
20260503223450 62 280 5.0 9.0 0.00 0.00 0.00 32 1012.5
20260503222946 64 266 5.0 9.0 0.00 0.00 0.00 35 1012.5
20260503222444 64 246 4.0 8.0 0.00 0.00 0.00 35 1012.6
20260503221942 65 231 3.0 8.0 0.00 0.00 0.00 33 1012.6
20260503221440 66 180 1.0 5.0 0.00 0.00 0.00 29 1012.6
20260503220937 67 205 3.0 6.0 0.00 0.00 0.00 29 1012.6
20260503220433 67 283 2.0 8.0 0.00 0.00 0.00 35 1012.6
20260503215930 68 222 3.0 10.0 0.00 0.00 0.00 34 1012.7
20260503215427 66 190 6.0 12.0 0.00 0.00 0.00 31 1012.7
20260503214925 67 213 7.0 15.0 0.00 0.00 0.00 33 1012.8
20260503214422 67 172 0.0 7.0 0.00 0.00 0.00 29 1013.0
20260503213920 67 213 4.0 8.0 0.00 0.00 0.00 30 1012.8
20260503213418 66 219 4.0 7.0 0.00 0.00 0.00 30 1013.0
20260503212914 66 216 6.0 11.0 0.00 0.00 0.00 31 1013.3
20260503212411 65 224 10.0 15.0 0.00 0.00 0.00 31 1013.1
20260503211909 66 210 6.0 12.0 0.00 0.00 0.00 31 1013.1
20260503211405 65 281 5.0 7.0 0.00 0.00 0.00 32 1013.1
20260503210900 66 273 3.0 5.0 0.00 0.00 0.00 31 1013.2
20260503210358 66 166 1.0 4.0 0.00 0.00 0.00 34 1013.2
20260503205853 66 232 8.0 8.0 0.00 0.00 0.00 32 1013.2
20260503205350 66 247 8.0 9.0 0.00 0.00 0.00 31 1013.4
20260503204846 65 151 1.0 7.0 0.00 0.00 0.00 37 1013.4
20260503204343 66 204 5.0 9.0 0.00 0.00 0.00 34 1013.6
20260503203840 66 323 3.0 9.0 0.00 0.00 0.00 36 1013.4
20260503203338 65 245 7.0 13.0 0.00 0.00 0.00 31 1013.4
20260503202835 67 233 4.0 12.0 0.00 0.00 0.00 36 1013.7
20260503202333 67 229 3.0 7.0 0.00 0.00 0.00 34 1013.7
20260503201831 65 169 7.0 11.0 0.00 0.00 0.00 33 1013.8
20260503201327 64 210 3.0 8.0 0.00 0.00 0.00 31 1013.8
20260503200825 64 342 2.0 13.0 0.00 0.00 0.00 31 1013.9
20260503200321 63 206 11.0 12.0 0.00 0.00 0.00 32 1013.8
20260503195819 63 202 4.0 6.0 0.00 0.00 0.00 34 1013.8
20260503195315 64 219 3.0 4.0 0.00 0.00 0.00 31 1013.9
20260503194812 64 284 9.0 13.0 0.00 0.00 0.00 33 1014.2
20260503194308 66 307 15.0 15.0 0.00 0.00 0.00 35 1013.9
20260503193804 63 280 7.0 9.0 0.00 0.00 0.00 34 1014.2
20260503193300 64 211 3.0 7.0 0.00 0.00 0.00 32 1014.1
20260503192756 65 249 5.0 7.0 0.00 0.00 0.00 32 1014.3
20260503192252 64 222 5.0 8.0 0.00 0.00 0.00 34 1014.2
20260503191748 64 210 2.0 6.0 0.00 0.00 0.00 35 1014.3
20260503191246 65 225 9.0 10.0 0.00 0.00 0.00 34 1014.4
20260503190742 64 257 3.0 11.0 0.00 0.00 0.00 33 1014.3
20260503190239 64 267 4.0 5.0 0.00 0.00 0.00 32 1014.4
20260503185736 63 290 2.0 10.0 0.00 0.00 0.00 31 1014.4
20260503185232 63 239 4.0 8.0 0.00 0.00 0.00 33 1014.7
20260503184727 62 280 7.0 9.0 0.00 0.00 0.00 32 1014.7
20260503184223 63 254 8.0 10.0 0.00 0.00 0.00 32 1014.7
20260503183720 64 203 5.0 9.0 0.00 0.00 0.00 35 1014.9
20260503183217 62 12 0.0 3.0 0.00 0.00 0.00 30 1014.7
20260503182716 65 324 2.0 7.0 0.00 0.00 0.00 33 1015.0
20260503182214 63 276 7.0 9.0 0.00 0.00 0.00 31 1015.0
20260503181710 63 207 5.0 9.0 0.00 0.00 0.00 32 1015.1
20260503181207 62 19 2.0 5.0 0.00 0.00 0.00 30 1015.3
20260503180703 62 230 3.0 9.0 0.00 0.00 0.00 30 1015.0
20260503180202 63 8 0.0 3.0 0.00 0.00 0.00 32 1015.0
20260503175658 63 290 4.0 8.0 0.00 0.00 0.00 31 1015.3
20260503175155 62 180 2.0 6.0 0.00 0.00 0.00 29 1015.1
20260503174651 62 216 2.0 5.0 0.00 0.00 0.00 32 1015.3
20260503174149 62 206 2.0 4.0 0.00 0.00 0.00 30 1015.4
20260503173644 62 301 5.0 6.0 0.00 0.00 0.00 29 1015.3
20260503173141 62 246 7.0 8.0 0.00 0.00 0.00 32 1015.1
20260503172638 61 232 3.0 5.0 0.00 0.00 0.00 31 1015.5
20260503172135 60 268 5.0 9.0 0.00 0.00 0.00 31 1015.4
20260503171631 61 226 5.0 11.0 0.00 0.00 0.00 33 1015.4
20260503171129 62 242 3.0 7.0 0.00 0.00 0.00 34 1015.4
20260503170626 60 23 2.0 4.0 0.00 0.00 0.00 33 1015.4
20260503170122 61 265 2.0 6.0 0.00 0.00 0.00 37 1015.5
20260503151012 57 180 0.0 2.0 0.00 0.00 0.00 43 1015.6
20260503150509 56 126 1.0 3.0 0.00 0.00 0.00 43 1015.4